Year,Month,Day,Hour,Minute,Value (Times are PST for windspeed in km/hr)
2013,09,30,00,00,7.90
2013,09,30,00,01,8.10
2013,09,30,00,02,9.10
2013,09,30,00,03,12.10
2013,09,30,00,04,16.30
2013,09,30,00,05,14.30
2013,09,30,00,06,14.50
2013,09,30,00,07,12.90
2013,09,30,00,08,13.00
2013,09,30,00,09,12.20
2013,09,30,00,10,10.60
2013,09,30,00,11,12.80
2013,09,30,00,12,18.50
2013,09,30,00,13,14.60
2013,09,30,00,14,18.30
2013,09,30,00,15,18.40
2013,09,30,00,16,20.20
2013,09,30,00,17,17.50
2013,09,30,00,18,13.90
2013,09,30,00,19,14.60
2013,09,30,00,20,16.90
2013,09,30,00,21,15.40
2013,09,30,00,22,18.60
2013,09,30,00,23,14.50
2013,09,30,00,24,13.00
2013,09,30,00,25,11.10
2013,09,30,00,26,9.00
2013,09,30,00,27,12.60
2013,09,30,00,28,14.40
2013,09,30,00,29,15.90
2013,09,30,00,30,14.00
2013,09,30,00,31,17.70
2013,09,30,00,32,17.50
2013,09,30,00,33,13.00
2013,09,30,00,34,14.70
2013,09,30,00,35,11.90
2013,09,30,00,36,13.80
2013,09,30,00,37,16.20
2013,09,30,00,38,16.70
2013,09,30,00,39,13.30
2013,09,30,00,40,11.80
2013,09,30,00,41,12.40
2013,09,30,00,42,13.30
2013,09,30,00,43,19.60
2013,09,30,00,44,11.70
2013,09,30,00,45,14.50
2013,09,30,00,46,11.70
2013,09,30,00,47,13.10
2013,09,30,00,48,8.20
2013,09,30,00,49,7.20
2013,09,30,00,50,6.80
2013,09,30,00,51,9.10
2013,09,30,00,52,8.90
2013,09,30,00,53,14.30
2013,09,30,00,54,14.50
2013,09,30,00,55,8.20
2013,09,30,00,56,9.20
2013,09,30,00,57,11.70
2013,09,30,00,58,7.90
2013,09,30,00,59,8.10
2013,09,30,01,00,6.50
2013,09,30,01,01,8.00
2013,09,30,01,02,13.00
2013,09,30,01,03,17.60
2013,09,30,01,04,18.30
2013,09,30,01,05,18.40
2013,09,30,01,06,10.10
2013,09,30,01,07,12.10
2013,09,30,01,08,14.70
2013,09,30,01,09,14.00
2013,09,30,01,10,11.50
2013,09,30,01,11,12.20
2013,09,30,01,12,21.20
2013,09,30,01,13,19.90
2013,09,30,01,14,14.50
2013,09,30,01,15,8.60
2013,09,30,01,16,10.90
2013,09,30,01,17,15.20
2013,09,30,01,18,19.80
2013,09,30,01,19,15.30
2013,09,30,01,20,14.50
2013,09,30,01,21,15.50
2013,09,30,01,22,13.80
2013,09,30,01,23,9.70
2013,09,30,01,24,9.10
2013,09,30,01,25,10.00
2013,09,30,01,26,8.40
2013,09,30,01,27,12.30
2013,09,30,01,28,13.50
2013,09,30,01,29,13.00
2013,09,30,01,30,14.60
2013,09,30,01,31,15.70
2013,09,30,01,32,10.90
2013,09,30,01,33,8.00
2013,09,30,01,34,9.20
2013,09,30,01,35,11.40
2013,09,30,01,36,14.10
2013,09,30,01,37,13.20
2013,09,30,01,38,17.90
2013,09,30,01,39,16.80
2013,09,30,01,40,15.40
2013,09,30,01,41,7.50
2013,09,30,01,42,13.30
2013,09,30,01,43,13.80
2013,09,30,01,44,10.30
2013,09,30,01,45,15.80
2013,09,30,01,46,11.10
2013,09,30,01,47,8.90
2013,09,30,01,48,7.10
2013,09,30,01,49,14.10
2013,09,30,01,50,15.30
2013,09,30,01,51,18.20
2013,09,30,01,52,12.60
2013,09,30,01,53,10.90
2013,09,30,01,54,10.20
2013,09,30,01,55,8.60
2013,09,30,01,56,6.70
2013,09,30,01,57,14.20
2013,09,30,01,58,14.20
2013,09,30,01,59,11.70
2013,09,30,02,00,8.30
2013,09,30,02,01,7.50
2013,09,30,02,02,7.30
2013,09,30,02,03,7.10
2013,09,30,02,04,6.30
2013,09,30,02,05,11.50
2013,09,30,02,06,10.90
2013,09,30,02,07,6.10
2013,09,30,02,08,5.30
2013,09,30,02,09,9.10
2013,09,30,02,10,14.90
2013,09,30,02,11,12.00
2013,09,30,02,12,7.50
2013,09,30,02,13,6.90
2013,09,30,02,14,9.70
2013,09,30,02,15,13.80
2013,09,30,02,16,10.40
2013,09,30,02,17,8.40
2013,09,30,02,18,6.00
2013,09,30,02,19,10.00
2013,09,30,02,20,9.40
2013,09,30,02,21,12.40
2013,09,30,02,22,8.30
2013,09,30,02,23,15.90
2013,09,30,02,24,15.00
2013,09,30,02,25,18.20
2013,09,30,02,26,13.00
2013,09,30,02,27,15.60
2013,09,30,02,28,19.30
2013,09,30,02,29,21.80
2013,09,30,02,30,13.90
2013,09,30,02,31,11.80
2013,09,30,02,32,10.50
2013,09,30,02,33,13.40
2013,09,30,02,34,13.00
2013,09,30,02,35,12.90
2013,09,30,02,36,11.20
2013,09,30,02,37,16.10
2013,09,30,02,38,14.20
2013,09,30,02,39,18.70
2013,09,30,02,40,14.50
2013,09,30,02,41,15.00
2013,09,30,02,42,12.40
2013,09,30,02,43,16.90
2013,09,30,02,44,17.90
2013,09,30,02,45,17.60
2013,09,30,02,46,16.70
2013,09,30,02,47,19.10
2013,09,30,02,48,14.30
2013,09,30,02,49,14.30
2013,09,30,02,50,12.30
2013,09,30,02,51,11.10
2013,09,30,02,52,14.70
2013,09,30,02,53,11.30
2013,09,30,02,54,12.00
2013,09,30,02,55,13.50
2013,09,30,02,56,11.30
2013,09,30,02,57,10.10
2013,09,30,02,58,5.10
2013,09,30,02,59,7.80
2013,09,30,03,00,7.80
2013,09,30,03,01,12.20
2013,09,30,03,02,8.70
2013,09,30,03,03,8.40
2013,09,30,03,04,11.20
2013,09,30,03,05,12.40
2013,09,30,03,06,13.50
2013,09,30,03,07,10.10
2013,09,30,03,08,7.30
2013,09,30,03,09,11.40
2013,09,30,03,10,15.20
2013,09,30,03,11,13.00
2013,09,30,03,12,11.90
2013,09,30,03,13,8.00
2013,09,30,03,14,13.30
2013,09,30,03,15,12.90
2013,09,30,03,16,10.00
2013,09,30,03,17,10.80
2013,09,30,03,18,16.30
2013,09,30,03,19,16.40
2013,09,30,03,20,12.40
2013,09,30,03,21,17.60
2013,09,30,03,22,12.10
2013,09,30,03,23,16.80
2013,09,30,03,24,14.50
2013,09,30,03,25,15.30
2013,09,30,03,26,15.00
2013,09,30,03,27,14.90
2013,09,30,03,28,17.10
2013,09,30,03,29,15.90
2013,09,30,03,30,15.70
2013,09,30,03,31,21.10
2013,09,30,03,32,16.20
2013,09,30,03,33,15.90
2013,09,30,03,34,19.20
2013,09,30,03,35,16.20
2013,09,30,03,36,23.20
2013,09,30,03,37,16.50
2013,09,30,03,38,20.40
2013,09,30,03,39,15.30
2013,09,30,03,40,21.10
2013,09,30,03,41,20.90
2013,09,30,03,42,18.00
2013,09,30,03,43,15.50
2013,09,30,03,44,15.90
2013,09,30,03,45,15.60
2013,09,30,03,46,9.70
2013,09,30,03,47,12.20
2013,09,30,03,48,10.30
2013,09,30,03,49,21.50
2013,09,30,03,50,16.10
2013,09,30,03,51,15.50
2013,09,30,03,52,15.90
2013,09,30,03,53,13.40
2013,09,30,03,54,13.50
2013,09,30,03,55,10.30
2013,09,30,03,56,13.80
2013,09,30,03,57,14.30
2013,09,30,03,58,14.50
2013,09,30,03,59,16.80
2013,09,30,04,00,17.60
2013,09,30,04,01,10.90
2013,09,30,04,02,14.00
2013,09,30,04,03,15.60
2013,09,30,04,04,10.00
2013,09,30,04,05,13.00
2013,09,30,04,06,10.10
2013,09,30,04,07,11.10
2013,09,30,04,08,9.90
2013,09,30,04,09,15.00
2013,09,30,04,10,12.30
2013,09,30,04,11,6.00
2013,09,30,04,12,8.30
2013,09,30,04,13,10.00
2013,09,30,04,14,13.00
2013,09,30,04,15,9.70
2013,09,30,04,16,12.50
2013,09,30,04,17,10.90
2013,09,30,04,18,8.00
2013,09,30,04,19,9.70
2013,09,30,04,20,10.30
2013,09,30,04,21,14.60
2013,09,30,04,22,13.30
2013,09,30,04,23,18.90
2013,09,30,04,24,19.00
2013,09,30,04,25,14.40
2013,09,30,04,26,8.10
2013,09,30,04,27,6.80
2013,09,30,04,28,11.40
2013,09,30,04,29,12.40
2013,09,30,04,30,13.90
2013,09,30,04,31,15.80
2013,09,30,04,32,11.50
2013,09,30,04,33,9.10
2013,09,30,04,34,9.70
2013,09,30,04,35,14.10
2013,09,30,04,36,13.30
2013,09,30,04,37,8.00
2013,09,30,04,38,11.40
2013,09,30,04,39,8.50
2013,09,30,04,40,11.30
2013,09,30,04,41,10.70
2013,09,30,04,42,10.00
2013,09,30,04,43,8.10
2013,09,30,04,44,12.90
2013,09,30,04,45,13.60
2013,09,30,04,46,10.90
2013,09,30,04,47,9.40
2013,09,30,04,48,9.20
2013,09,30,04,49,15.10
2013,09,30,04,50,10.50
2013,09,30,04,51,14.30
2013,09,30,04,52,15.90
2013,09,30,04,53,11.50
2013,09,30,04,54,14.70
2013,09,30,04,55,17.20
2013,09,30,04,56,20.50
2013,09,30,04,57,19.60
2013,09,30,04,58,21.20
2013,09,30,04,59,12.60
2013,09,30,05,00,8.80
2013,09,30,05,01,16.80
2013,09,30,05,02,16.60
2013,09,30,05,03,11.40
2013,09,30,05,04,8.70
2013,09,30,05,05,10.60
2013,09,30,05,06,14.60
2013,09,30,05,07,10.20
2013,09,30,05,08,9.00
2013,09,30,05,09,10.80
2013,09,30,05,10,10.60
2013,09,30,05,11,14.30
2013,09,30,05,12,8.90
2013,09,30,05,13,11.10
2013,09,30,05,14,10.60
2013,09,30,05,15,6.30
2013,09,30,05,16,8.80
2013,09,30,05,17,13.00
2013,09,30,05,18,6.60
2013,09,30,05,19,7.30
2013,09,30,05,20,14.00
2013,09,30,05,21,11.80
2013,09,30,05,22,8.90
2013,09,30,05,23,13.30
2013,09,30,05,24,12.60
2013,09,30,05,25,11.00
2013,09,30,05,26,12.80
2013,09,30,05,27,12.30
2013,09,30,05,28,8.80
2013,09,30,05,29,5.80
2013,09,30,05,30,9.30
2013,09,30,05,31,10.90
2013,09,30,05,32,9.60
2013,09,30,05,33,12.00
2013,09,30,05,34,13.40
2013,09,30,05,35,12.00
2013,09,30,05,36,15.50
2013,09,30,05,37,20.20
2013,09,30,05,38,20.10
2013,09,30,05,39,15.40
2013,09,30,05,40,10.90
2013,09,30,05,41,17.60
2013,09,30,05,42,16.40
2013,09,30,05,43,13.20
2013,09,30,05,44,20.80
2013,09,30,05,45,15.80
2013,09,30,05,46,21.20
2013,09,30,05,47,18.30
2013,09,30,05,48,16.20
2013,09,30,05,49,10.20
2013,09,30,05,50,11.80
2013,09,30,05,51,8.30
2013,09,30,05,52,13.30
2013,09,30,05,53,10.00
2013,09,30,05,54,14.10
2013,09,30,05,55,14.40
2013,09,30,05,56,14.00
2013,09,30,05,57,7.60
2013,09,30,05,58,11.00
2013,09,30,05,59,10.30
2013,09,30,06,00,6.50
2013,09,30,06,01,5.70
2013,09,30,06,02,5.40
2013,09,30,06,03,4.40
2013,09,30,06,04,6.90
2013,09,30,06,05,7.00
2013,09,30,06,06,4.50
2013,09,30,06,07,8.30
2013,09,30,06,08,4.60
2013,09,30,06,09,2.00
2013,09,30,06,10,0.40
2013,09,30,06,11,0.70
2013,09,30,06,12,0.10
2013,09,30,06,13,0.10
2013,09,30,06,14,1.40
2013,09,30,06,15,0.00
2013,09,30,06,16,0.10
2013,09,30,06,17,0.30
2013,09,30,06,18,0.00
2013,09,30,06,19,0.00
2013,09,30,06,20,0.00
2013,09,30,06,21,0.00
2013,09,30,06,22,0.00
2013,09,30,06,23,0.00
2013,09,30,06,24,0.00
2013,09,30,06,25,0.00
2013,09,30,06,26,0.00
2013,09,30,06,27,0.00
2013,09,30,06,28,0.20
2013,09,30,06,29,1.00
2013,09,30,06,30,2.40
2013,09,30,06,31,2.40
2013,09,30,06,32,2.50
2013,09,30,06,33,1.90
2013,09,30,06,34,1.20
2013,09,30,06,35,1.60
2013,09,30,06,36,2.40
2013,09,30,06,37,1.80
2013,09,30,06,38,2.00
2013,09,30,06,39,2.70
2013,09,30,06,40,2.80
2013,09,30,06,41,2.70
2013,09,30,06,42,1.50
2013,09,30,06,43,0.00
2013,09,30,06,44,0.00
2013,09,30,06,45,0.10
2013,09,30,06,46,0.60
2013,09,30,06,47,0.20
2013,09,30,06,48,0.10
2013,09,30,06,49,0.10
2013,09,30,06,50,0.00
2013,09,30,06,51,0.20
2013,09,30,06,52,0.00
2013,09,30,06,53,0.40
2013,09,30,06,54,2.90
2013,09,30,06,55,1.70
2013,09,30,06,56,3.00
2013,09,30,06,57,2.60
2013,09,30,06,58,1.10
2013,09,30,06,59,0.00
2013,09,30,07,00,0.00
2013,09,30,07,01,0.00
2013,09,30,07,02,0.00
2013,09,30,07,03,0.00
2013,09,30,07,04,0.00
2013,09,30,07,05,0.00
2013,09,30,07,06,1.50
2013,09,30,07,07,0.10
2013,09,30,07,08,0.10
2013,09,30,07,09,0.80
2013,09,30,07,10,2.20
2013,09,30,07,11,1.60
2013,09,30,07,12,0.10
2013,09,30,07,13,1.10
2013,09,30,07,14,1.20
2013,09,30,07,15,0.30
2013,09,30,07,16,0.00
2013,09,30,07,17,0.00
2013,09,30,07,18,0.00
2013,09,30,07,19,0.00
2013,09,30,07,20,0.00
2013,09,30,07,21,0.00
2013,09,30,07,22,0.00
2013,09,30,07,23,0.00
2013,09,30,07,24,0.00
2013,09,30,07,25,0.00
2013,09,30,07,26,2.20
2013,09,30,07,27,3.50
2013,09,30,07,28,4.90
2013,09,30,07,29,4.40
2013,09,30,07,30,3.10
2013,09,30,07,31,4.10
2013,09,30,07,32,3.50
2013,09,30,07,33,6.20
2013,09,30,07,34,7.20
2013,09,30,07,35,9.30
2013,09,30,07,36,3.90
2013,09,30,07,37,7.90
2013,09,30,07,38,6.80
2013,09,30,07,39,6.40
2013,09,30,07,40,6.80
2013,09,30,07,41,7.40
2013,09,30,07,42,6.80
2013,09,30,07,43,8.30
2013,09,30,07,44,5.20
2013,09,30,07,45,9.10
2013,09,30,07,46,8.60
2013,09,30,07,47,8.70
2013,09,30,07,48,9.10
2013,09,30,07,49,9.20
2013,09,30,07,50,7.50
2013,09,30,07,51,10.00
2013,09,30,07,52,8.50
2013,09,30,07,53,6.80
2013,09,30,07,54,10.30
2013,09,30,07,55,4.50
2013,09,30,07,56,7.70
2013,09,30,07,57,5.80
2013,09,30,07,58,9.40
2013,09,30,07,59,9.00
2013,09,30,08,00,8.40
2013,09,30,08,01,7.90
2013,09,30,08,02,4.10
2013,09,30,08,03,6.30
2013,09,30,08,04,4.90
2013,09,30,08,05,5.10
2013,09,30,08,06,5.00
2013,09,30,08,07,5.70
2013,09,30,08,08,2.80
2013,09,30,08,09,1.40
2013,09,30,08,10,1.60
2013,09,30,08,11,3.10
2013,09,30,08,12,2.70
2013,09,30,08,13,4.70
2013,09,30,08,14,4.40
2013,09,30,08,15,4.20
2013,09,30,08,16,4.50
2013,09,30,08,17,2.90
2013,09,30,08,18,4.60
2013,09,30,08,19,3.80
2013,09,30,08,20,1.50
2013,09,30,08,21,2.70
2013,09,30,08,22,1.50
2013,09,30,08,23,0.90
2013,09,30,08,24,2.50
2013,09,30,08,25,4.00
2013,09,30,08,26,4.00
2013,09,30,08,27,3.90
2013,09,30,08,28,1.50
2013,09,30,08,29,1.90
2013,09,30,08,30,3.90
2013,09,30,08,31,5.50
2013,09,30,08,32,4.30
2013,09,30,08,33,5.60
2013,09,30,08,34,2.40
2013,09,30,08,35,2.50
2013,09,30,08,36,4.20
2013,09,30,08,37,2.90
2013,09,30,08,38,2.60
2013,09,30,08,39,0.60
2013,09,30,08,40,1.20
2013,09,30,08,41,3.10
2013,09,30,08,42,2.40
2013,09,30,08,43,2.30
2013,09,30,08,44,2.00
2013,09,30,08,45,3.00
2013,09,30,08,46,4.80
2013,09,30,08,47,2.90
2013,09,30,08,48,5.10
2013,09,30,08,49,5.20
2013,09,30,08,50,2.20
2013,09,30,08,51,0.50
2013,09,30,08,52,2.20
2013,09,30,08,53,2.10
2013,09,30,08,54,2.00
2013,09,30,08,55,1.60
2013,09,30,08,56,2.90
2013,09,30,08,57,2.20
2013,09,30,08,58,2.10
2013,09,30,08,59,3.10
2013,09,30,09,00,4.60
2013,09,30,09,01,5.00
2013,09,30,09,02,3.80
2013,09,30,09,03,1.30
2013,09,30,09,04,1.40
2013,09,30,09,05,2.60
2013,09,30,09,06,4.30
2013,09,30,09,07,4.10
2013,09,30,09,08,5.00
2013,09,30,09,09,2.60
2013,09,30,09,10,2.70
2013,09,30,09,11,5.40
2013,09,30,09,12,9.80
2013,09,30,09,13,4.20
2013,09,30,09,14,3.50
2013,09,30,09,15,3.50
2013,09,30,09,16,3.90
2013,09,30,09,17,4.10
2013,09,30,09,18,4.00
2013,09,30,09,19,4.00
2013,09,30,09,20,5.80
2013,09,30,09,21,4.20
2013,09,30,09,22,8.00
2013,09,30,09,23,5.90
2013,09,30,09,24,7.30
2013,09,30,09,25,7.50
2013,09,30,09,26,8.60
2013,09,30,09,27,5.90
2013,09,30,09,28,8.90
2013,09,30,09,29,7.50
2013,09,30,09,30,7.80
2013,09,30,09,31,9.50
2013,09,30,09,32,7.00
2013,09,30,09,33,6.50
2013,09,30,09,34,6.60
2013,09,30,09,35,6.00
2013,09,30,09,36,8.60
2013,09,30,09,37,9.10
2013,09,30,09,38,4.10
2013,09,30,09,39,6.50
2013,09,30,09,40,8.80
2013,09,30,09,41,7.20
2013,09,30,09,42,7.80
2013,09,30,09,43,4.30
2013,09,30,09,44,9.50
2013,09,30,09,45,8.30
2013,09,30,09,46,7.00
2013,09,30,09,47,8.50
2013,09,30,09,48,7.80
2013,09,30,09,49,10.10
2013,09,30,09,50,13.00
2013,09,30,09,51,12.20
2013,09,30,09,52,8.70
2013,09,30,09,53,6.50
2013,09,30,09,54,8.50
2013,09,30,09,55,6.00
2013,09,30,09,56,8.00
2013,09,30,09,57,8.90
2013,09,30,09,58,9.00
2013,09,30,09,59,7.60
2013,09,30,10,00,10.00
2013,09,30,10,01,9.70
2013,09,30,10,02,5.10
2013,09,30,10,03,3.90
2013,09,30,10,04,4.40
2013,09,30,10,05,6.40
2013,09,30,10,06,9.40
2013,09,30,10,07,7.30
2013,09,30,10,08,7.70
2013,09,30,10,09,8.90
2013,09,30,10,10,6.80
2013,09,30,10,11,5.20
2013,09,30,10,12,6.70
2013,09,30,10,13,8.70
2013,09,30,10,14,6.40
2013,09,30,10,15,8.40
2013,09,30,10,16,6.10
2013,09,30,10,17,5.10
2013,09,30,10,18,8.70
2013,09,30,10,19,6.10
2013,09,30,10,20,10.10
2013,09,30,10,21,7.80
2013,09,30,10,22,6.00
2013,09,30,10,23,7.70
2013,09,30,10,24,7.00
2013,09,30,10,25,7.20
2013,09,30,10,26,10.10
2013,09,30,10,27,7.80
2013,09,30,10,28,3.60
2013,09,30,10,29,3.40
2013,09,30,10,30,1.20
2013,09,30,10,31,2.00
2013,09,30,10,32,6.40
2013,09,30,10,33,2.50
2013,09,30,10,34,1.50
2013,09,30,10,35,1.10
2013,09,30,10,36,3.00
2013,09,30,10,37,3.60
2013,09,30,10,38,5.80
2013,09,30,10,39,5.90
2013,09,30,10,40,7.60
2013,09,30,10,41,3.80
2013,09,30,10,42,5.40
2013,09,30,10,43,5.80
2013,09,30,10,44,4.70
2013,09,30,10,45,1.60
2013,09,30,10,46,1.40
2013,09,30,10,47,0.40
2013,09,30,10,48,0.10
2013,09,30,10,49,0.30
2013,09,30,10,50,0.30
2013,09,30,10,51,1.50
2013,09,30,10,52,6.00
2013,09,30,10,53,8.80
2013,09,30,10,54,7.40
2013,09,30,10,55,3.90
2013,09,30,10,56,8.30
2013,09,30,10,57,8.20
2013,09,30,10,58,3.50
2013,09,30,10,59,5.10
2013,09,30,11,00,5.20
2013,09,30,11,01,3.40
2013,09,30,11,02,2.50
2013,09,30,11,03,1.00
2013,09,30,11,04,6.00
2013,09,30,11,05,7.70
2013,09,30,11,06,6.50
2013,09,30,11,07,4.10
2013,09,30,11,08,3.50
2013,09,30,11,09,4.90
2013,09,30,11,10,6.60
2013,09,30,11,11,11.10
2013,09,30,11,12,8.90
2013,09,30,11,13,11.70
2013,09,30,11,14,7.50
2013,09,30,11,15,6.90
2013,09,30,11,16,7.00
2013,09,30,11,17,6.20
2013,09,30,11,18,9.90
2013,09,30,11,19,9.10
2013,09,30,11,20,12.10
2013,09,30,11,21,9.20
2013,09,30,11,22,8.20
2013,09,30,11,23,10.40
2013,09,30,11,24,13.20
2013,09,30,11,25,12.60
2013,09,30,11,26,10.10
2013,09,30,11,27,13.20
2013,09,30,11,28,11.80
2013,09,30,11,29,7.40
2013,09,30,11,30,5.10
2013,09,30,11,31,11.60
2013,09,30,11,32,14.50
2013,09,30,11,33,12.40
2013,09,30,11,34,12.60
2013,09,30,11,35,16.00
2013,09,30,11,36,13.70
2013,09,30,11,37,8.60
2013,09,30,11,38,9.10
2013,09,30,11,39,12.00
2013,09,30,11,40,9.30
2013,09,30,11,41,13.50
2013,09,30,11,42,11.00
2013,09,30,11,43,13.00
2013,09,30,11,44,11.80
2013,09,30,11,45,7.20
2013,09,30,11,46,8.30
2013,09,30,11,47,13.30
2013,09,30,11,48,12.60
2013,09,30,11,49,9.30
2013,09,30,11,50,11.20
2013,09,30,11,51,8.50
2013,09,30,11,52,9.60
2013,09,30,11,53,9.90
2013,09,30,11,54,3.90
2013,09,30,11,55,8.00
2013,09,30,11,56,8.70
2013,09,30,11,57,7.70
2013,09,30,11,58,5.90
2013,09,30,11,59,9.30
2013,09,30,12,00,10.70
2013,09,30,12,01,13.00
2013,09,30,12,02,8.60
2013,09,30,12,03,6.40
2013,09,30,12,04,7.20
2013,09,30,12,05,8.50
2013,09,30,12,06,5.90
2013,09,30,12,07,5.90
2013,09,30,12,08,5.10
2013,09,30,12,09,8.10
2013,09,30,12,10,7.00
2013,09,30,12,11,7.40
2013,09,30,12,12,6.00
2013,09,30,12,13,8.00
2013,09,30,12,14,7.60
2013,09,30,12,15,10.20
2013,09,30,12,16,12.30
2013,09,30,12,17,9.60
2013,09,30,12,18,10.90
2013,09,30,12,19,8.50
2013,09,30,12,20,12.00
2013,09,30,12,21,12.00
2013,09,30,12,22,9.70
2013,09,30,12,23,7.50
2013,09,30,12,24,3.20
2013,09,30,12,25,6.40
2013,09,30,12,26,7.60
2013,09,30,12,27,5.40
2013,09,30,12,28,9.30
2013,09,30,12,29,7.90
2013,09,30,12,30,12.30
2013,09,30,12,31,14.00
2013,09,30,12,32,6.20
2013,09,30,12,33,8.00
2013,09,30,12,34,9.10
2013,09,30,12,35,5.60
2013,09,30,12,36,9.60
2013,09,30,12,37,7.50
2013,09,30,12,38,7.00
2013,09,30,12,39,5.50
2013,09,30,12,40,5.60
2013,09,30,12,41,7.40
2013,09,30,12,42,9.70
2013,09,30,12,43,11.20
2013,09,30,12,44,5.60
2013,09,30,12,45,10.10
2013,09,30,12,46,7.30
2013,09,30,12,47,8.10
2013,09,30,12,48,7.70
2013,09,30,12,49,10.50
2013,09,30,12,50,9.80
2013,09,30,12,51,8.70
2013,09,30,12,52,6.90
2013,09,30,12,53,7.00
2013,09,30,12,54,6.90
2013,09,30,12,55,12.20
2013,09,30,12,56,8.40
2013,09,30,12,57,7.00
2013,09,30,12,58,5.60
2013,09,30,12,59,8.20
2013,09,30,13,00,7.40
2013,09,30,13,01,6.00
2013,09,30,13,02,6.70
2013,09,30,13,03,8.30
2013,09,30,13,04,10.10
2013,09,30,13,05,10.00
2013,09,30,13,06,9.10
2013,09,30,13,07,9.50
2013,09,30,13,08,12.40
2013,09,30,13,09,9.00
2013,09,30,13,10,8.00
2013,09,30,13,11,8.10
2013,09,30,13,12,7.00
2013,09,30,13,13,8.90
2013,09,30,13,14,5.70
2013,09,30,13,15,8.10
2013,09,30,13,16,10.00
2013,09,30,13,17,8.00
2013,09,30,13,18,8.50
2013,09,30,13,19,10.70
2013,09,30,13,20,9.30
2013,09,30,13,21,10.10
2013,09,30,13,22,9.90
2013,09,30,13,23,12.40
2013,09,30,13,24,10.90
2013,09,30,13,25,9.00
2013,09,30,13,26,8.70
2013,09,30,13,27,6.10
2013,09,30,13,28,6.50
2013,09,30,13,29,6.80
2013,09,30,13,30,7.60
2013,09,30,13,31,7.60
2013,09,30,13,32,4.90
2013,09,30,13,33,7.40
2013,09,30,13,34,7.30
2013,09,30,13,35,6.80
2013,09,30,13,36,10.20
2013,09,30,13,37,8.40
2013,09,30,13,38,6.40
2013,09,30,13,39,3.60
2013,09,30,13,40,2.40
2013,09,30,13,41,7.30
2013,09,30,13,42,10.60
2013,09,30,13,43,7.20
2013,09,30,13,44,6.80
2013,09,30,13,45,11.30
2013,09,30,13,46,4.70
2013,09,30,13,47,5.10
2013,09,30,13,48,6.70
2013,09,30,13,49,6.60
2013,09,30,13,50,8.30
2013,09,30,13,51,9.20
2013,09,30,13,52,11.10
2013,09,30,13,53,6.40
2013,09,30,13,54,7.70
2013,09,30,13,55,9.30
2013,09,30,13,56,10.60
2013,09,30,13,57,7.50
2013,09,30,13,58,5.10
2013,09,30,13,59,9.70
2013,09,30,14,00,8.70
2013,09,30,14,01,10.50
2013,09,30,14,02,13.90
2013,09,30,14,03,11.90
2013,09,30,14,04,10.70
2013,09,30,14,05,12.90
2013,09,30,14,06,16.60
2013,09,30,14,07,12.50
2013,09,30,14,08,12.30
2013,09,30,14,09,12.40
2013,09,30,14,10,11.40
2013,09,30,14,11,9.50
2013,09,30,14,12,9.80
2013,09,30,14,13,10.10
2013,09,30,14,14,6.90
2013,09,30,14,15,9.10
2013,09,30,14,16,6.80
2013,09,30,14,17,10.10
2013,09,30,14,18,11.80
2013,09,30,14,19,11.60
2013,09,30,14,20,10.70
2013,09,30,14,21,12.00
2013,09,30,14,22,11.40
2013,09,30,14,23,12.10
2013,09,30,14,24,14.40
2013,09,30,14,25,9.80
2013,09,30,14,26,10.70
2013,09,30,14,27,10.80
2013,09,30,14,28,10.70
2013,09,30,14,29,14.60
2013,09,30,14,30,15.00
2013,09,30,14,31,12.50
2013,09,30,14,32,16.90
2013,09,30,14,33,12.70
2013,09,30,14,34,13.30
2013,09,30,14,35,11.70
2013,09,30,14,36,8.80
2013,09,30,14,37,4.40
2013,09,30,14,38,8.10
2013,09,30,14,39,8.10
2013,09,30,14,40,4.80
2013,09,30,14,41,5.60
2013,09,30,14,42,7.20
2013,09,30,14,43,9.60
2013,09,30,14,44,8.60
2013,09,30,14,45,5.60
2013,09,30,14,46,8.20
2013,09,30,14,47,8.20
2013,09,30,14,48,7.30
2013,09,30,14,49,7.50
2013,09,30,14,50,10.10
2013,09,30,14,51,9.40
2013,09,30,14,52,7.10
2013,09,30,14,53,4.10
2013,09,30,14,54,5.50
2013,09,30,14,55,6.00
2013,09,30,14,56,9.00
2013,09,30,14,57,13.70
2013,09,30,14,58,13.00
2013,09,30,14,59,10.60
2013,09,30,15,00,10.10
2013,09,30,15,01,10.00
2013,09,30,15,02,4.80
2013,09,30,15,03,7.30
2013,09,30,15,04,7.00
2013,09,30,15,05,7.00
2013,09,30,15,06,8.50
2013,09,30,15,07,6.40
2013,09,30,15,08,8.40
2013,09,30,15,09,5.10
2013,09,30,15,10,6.70
2013,09,30,15,11,6.40
2013,09,30,15,12,9.10
2013,09,30,15,13,10.60
2013,09,30,15,14,10.00
2013,09,30,15,15,5.90
2013,09,30,15,16,9.30
2013,09,30,15,17,12.40
2013,09,30,15,18,13.20
2013,09,30,15,19,12.20
2013,09,30,15,20,16.20
2013,09,30,15,21,18.40
2013,09,30,15,22,13.00
2013,09,30,15,23,10.80
2013,09,30,15,24,10.90
2013,09,30,15,25,14.00
2013,09,30,15,26,8.20
2013,09,30,15,27,4.90
2013,09,30,15,28,11.20
2013,09,30,15,29,8.60
2013,09,30,15,30,6.80
2013,09,30,15,31,8.50
2013,09,30,15,32,7.00
2013,09,30,15,33,7.50
2013,09,30,15,34,9.70
2013,09,30,15,35,5.60
2013,09,30,15,36,7.40
2013,09,30,15,37,6.40
2013,09,30,15,38,7.80
2013,09,30,15,39,6.70
2013,09,30,15,40,10.00
2013,09,30,15,41,8.00
2013,09,30,15,42,7.40
2013,09,30,15,43,11.40
2013,09,30,15,44,8.00
2013,09,30,15,45,8.90
2013,09,30,15,46,7.50
2013,09,30,15,47,8.60
2013,09,30,15,48,6.80
2013,09,30,15,49,11.80
2013,09,30,15,50,8.00
2013,09,30,15,51,12.60
2013,09,30,15,52,8.40
2013,09,30,15,53,8.30
2013,09,30,15,54,8.70
2013,09,30,15,55,5.20
2013,09,30,15,56,6.30
2013,09,30,15,57,4.30
2013,09,30,15,58,7.50
2013,09,30,15,59,7.20
2013,09,30,16,00,7.50
2013,09,30,16,01,7.70
2013,09,30,16,02,10.10
2013,09,30,16,03,12.30
2013,09,30,16,04,10.40
2013,09,30,16,05,11.70
2013,09,30,16,06,10.40
2013,09,30,16,07,8.90
2013,09,30,16,08,7.70
2013,09,30,16,09,10.00
2013,09,30,16,10,10.30
2013,09,30,16,11,15.40
2013,09,30,16,12,13.00
2013,09,30,16,13,13.00
2013,09,30,16,14,11.80
2013,09,30,16,15,9.60
2013,09,30,16,16,8.10
2013,09,30,16,17,10.40
2013,09,30,16,18,11.30
2013,09,30,16,19,12.10
2013,09,30,16,20,12.00
2013,09,30,16,21,9.70
2013,09,30,16,22,8.50
2013,09,30,16,23,8.60
2013,09,30,16,24,6.30
2013,09,30,16,25,8.40
2013,09,30,16,26,8.90
2013,09,30,16,27,5.10
2013,09,30,16,28,8.80
2013,09,30,16,29,5.10
2013,09,30,16,30,4.40
2013,09,30,16,31,8.70
2013,09,30,16,32,8.60
2013,09,30,16,33,9.00
2013,09,30,16,34,8.20
2013,09,30,16,35,13.10
2013,09,30,16,36,11.00
2013,09,30,16,37,7.90
2013,09,30,16,38,7.60
2013,09,30,16,39,3.40
2013,09,30,16,40,6.40
2013,09,30,16,41,8.60
2013,09,30,16,42,6.60
2013,09,30,16,43,8.80
2013,09,30,16,44,8.10
2013,09,30,16,45,7.30
2013,09,30,16,46,6.30
2013,09,30,16,47,7.80
2013,09,30,16,48,7.90
2013,09,30,16,49,13.40
2013,09,30,16,50,10.60
2013,09,30,16,51,9.30
2013,09,30,16,52,8.00
2013,09,30,16,53,9.00
2013,09,30,16,54,6.60
2013,09,30,16,55,7.50
2013,09,30,16,56,8.40
2013,09,30,16,57,5.10
2013,09,30,16,58,4.70
2013,09,30,16,59,7.60
2013,09,30,17,00,9.00
2013,09,30,17,01,11.90
2013,09,30,17,02,12.30
2013,09,30,17,03,9.50
2013,09,30,17,04,15.30
2013,09,30,17,05,14.50
2013,09,30,17,06,11.00
2013,09,30,17,07,17.90
2013,09,30,17,08,10.50
2013,09,30,17,09,13.00
2013,09,30,17,10,10.50
2013,09,30,17,11,13.20
2013,09,30,17,12,10.90
2013,09,30,17,13,15.10
2013,09,30,17,14,7.70
2013,09,30,17,15,10.10
2013,09,30,17,16,11.40
2013,09,30,17,17,16.20
2013,09,30,17,18,15.00
2013,09,30,17,19,20.20
2013,09,30,17,20,13.00
2013,09,30,17,21,13.30
2013,09,30,17,22,16.20
2013,09,30,17,23,11.60
2013,09,30,17,24,15.10
2013,09,30,17,25,17.20
2013,09,30,17,26,20.10
2013,09,30,17,27,12.50
2013,09,30,17,28,8.70
2013,09,30,17,29,13.10
2013,09,30,17,30,11.50
2013,09,30,17,31,10.60
2013,09,30,17,32,9.10
2013,09,30,17,33,11.90
2013,09,30,17,34,15.10
2013,09,30,17,35,18.30
2013,09,30,17,36,13.90
2013,09,30,17,37,11.30
2013,09,30,17,38,12.20
2013,09,30,17,39,12.00
2013,09,30,17,40,8.00
2013,09,30,17,41,6.90
2013,09,30,17,42,5.20
2013,09,30,17,43,10.70
2013,09,30,17,44,8.50
2013,09,30,17,45,9.60
2013,09,30,17,46,10.00